Location: Gleizolles
(44.4833°N, 6.7667°E)
Time: 04:04:17
(UTC+00:00)

Vanguard 1 Rocket - Pass Details

Date: 24 June 2024
Orbit: 650 x 4219 km, 34.3° (Epoch: 15 July)

Event Time Altitude Azimuth Distance (km) Brightness Sun altitude
Rises 08:13:13 0° 283° (WNW) 8,046 11.8 44.0°
Reaches altitude 10° 08:20:21 10° 272° (W) 7,296 11.7 45.2°
Maximum altitude 08:37:36 24° 230° (SW) 6,173 11.6 48.2°
Drops below altitude 10° 08:53:19 10° 186° (S) 6,502 12.0 50.9°
Sets 08:59:19 0° 173° (S) 7,015 12.2 51.9°
